Location: Newark
(41.0400°S, 62.7845°W)
Time: 22:24:13
(UTC+00:00)

CUTE 1.7 + AOD 2 - Pass Details

Date: 06 February 2022
Orbit: 591 x 608 km, 97.7° (Epoch: 16 May)

Event Time Altitude Azimuth Distance (km) Brightness Sun altitude
Exits shadow 07:37:09 26° 358° (N) 1,214 ? -18.0°
Maximum altitude 07:39:29 68° 282° (WNW) 663 ? -17.7°
Drops below altitude 10° 07:43:47 10° 198° (SSW) 1,977 ? -17.1°
Sets 07:45:59 0° 195° (SSW) 2,885 ? -16.8°
